Showing default

TIANPING 3A-01, 61614

Orbit data source: Space-Track

TIANPING 3A-01, 61614 is a payload satellite owned by ZJUNI-SAT (CN) in SSO that was launched on Tue, 22 Oct 2024 UTC via a CHANG ZHENG 6 launch vehicle from the Taiyaun Space Center, China (TSC). Payload-class satellites include a variety of spacecraft equipped with specific instruments for various scientific and technological missions. These include communications satellites like Starlink; space stations such as the ISS; scientific satellites like the Hubble; Earth observation satellites from companies like Planet Labs, Umbra, and HawkEye 360; GPS; miniature CubeSats for education and research; and military/defense satellites.

Loading next visibility...
Identifier
61614, 2024-189A
Orbit
SSO
Country
Flag of CNCN / PRC
Related business
Manufacturer
ZJUNI-SAT
Mission
Operational Defense Calibration
Bus & Motor
TP-3, Unknown motor
Mass
200 kg wet, ~200 kg dry
Launch date (UTC)
2024-10-22 (1 year ago)
Launch vehicle
CHANG ZHENG 6
Launch site
Taiyaun Space Center, China (TSC)
Object type
Payload
Rocket body
Debris
Shape & HBR
Box, 0.3 m
Radar Cross Section
0.135 m², Large (>1 m²)

Expand to show TLE details & history
Last TLE update: 5 hours ago

TLE from 5 hours ago
0 TIANPING 3A-01
1 61614U 24189A   25312.85616506  .00007094  00000-0  56044-3 0  9994
2 61614  97.5519 334.7008 0002497  93.8632 266.2878 15.00969497 57432
Epoch: 2025-11-08T20:32Z
TLE epoch observation values (Epoch: 2025-11-08T20:32:52.661Z)
Latitude
0.00001°
Longitude
-21.7984°
Altitude
567.078 km
Speed
7.577 km/s
True Right ascension
22h 18m 48s
True Declination
0° 00' 00"
Sunlit
Object was in daylight at epoch
Visualization orbit readout
Latitude
Unknown
Longitude
Unknown
Altitude
Unknown
Speed
Unknown
Apparent Right ascension
Unknown
Apparent Declination
Unknown
Sunlit
N/A
Visualization observer readout
Local Sidereal Time
21:40:46
Azimuth
Unknown
Elevation
Unknown
Doppler factor
Unknown
Orbital elements
Apogee altitude
562.636 km
Perigee altitude
559.17 km
Semi-major axis
6,939.04 km
Eccentricity
0.00025
Inclination
97.5519°
RAAN
334.7008°
Arg. of periapsis
93.8632°
True anomaly
266.25925°
Mean anomaly
266.2878°
Eccentric anomaly
266.27352°
Mean motion
3.75486 °/min
Orbital period
95.88 mins
BSTAR
0.00056044
Loading maneuver chart data...
Computing Atmospheric mass density...
Loading historical data...
Loading historical data...
Loading historical data...
Loading historical data...
Loading historical data...
Loading historical data...
Loading historical data...
Other satellites on launch #189 in the year 2024 (2024-10-22 UTC)

Documentation

Showing up to 5 results
|